Simultaneous Nadir Overpasses (SNOs) Predictions

Prediction of SNOs between AQUA and METOP-C Satellite Orbit:

Table of predicted SNOs for the next 14.0 days since TLE Epoch: 10/26/2024
Index Date (AQUA) Time (AQUA) Lat,Lon (AQUA) SZA (AQUA ) Date (METOP-C) Time (METOP-C) Lat,Lon (METOP-C) SZA (METOP-C ) Distance(km) Time Diff (sec)
1 10/26/2024 12:10:08 75.81, -2.62 88.47 10/26/2024 12:09:31 75.81, -2.53 88.47 2.39 37
2 10/26/2024 12:59:29 -75.87, 164.86 91.47 10/26/2024 13:00:12 -75.86, 164.93 91.48 2.52 43
3 10/29/2024 01:50:27 -75.51, -26.76 90.96 10/29/2024 01:49:18 -75.43, -28.65 91.07 53.16 69
4 10/29/2024 02:39:54 75.81, 140.00 89.34 10/29/2024 02:39:49 75.83, 139.96 89.37 2.92 5
5 10/29/2024 03:29:16 -75.91, -52.66 90.55 10/29/2024 03:30:29 -75.93, -52.41 90.53 6.86 73
6 10/31/2024 16:20:17 -75.83, 114.90 89.81 10/31/2024 16:19:28 -75.81, 114.99 89.82 2.76 49
7 10/31/2024 17:09:38 75.84, -77.48 90.22 10/31/2024 17:10:07 75.84, -77.60 90.22 3.40 29
8 11/03/2024 06:49:57 -75.84,-102.50 88.98 11/03/2024 06:49:44 -75.85,-102.45 88.96 1.93 13
9 11/03/2024 07:39:19 75.91, 64.95 91.11 11/03/2024 07:40:22 75.92, 65.09 91.12 4.01 63
10 11/05/2024 20:30:15 75.84,-127.52 91.81 11/05/2024 20:29:20 75.82,-127.47 91.79 3.06 55
11 11/05/2024 21:19:36 -75.89, 40.01 88.14 11/05/2024 21:20:01 -75.88, 40.05 88.14 1.73 25
12 11/08/2024 10:59:51 75.88, 15.03 92.61 11/08/2024 10:59:36 75.86, 15.12 92.60 2.84 15



Historial Predications of SNOs between AQUA and METOP-C
